Retour au catalogue

CZ-6A DEB

ActifSSO
NORAD 54955·DEBRIS·🇨🇳 China

Lancé Nov 11, 2022 depuis Taiyuan Satellite Launch Center

Loading…

Prochains Passages (prochaines 24 heures)

TLE

FraisSource: Space-Track

Époque: Sep 14, 2026, 13:34 UTC

1 54955U 22151SU  26257.56532869  .00000431  00000-0  13363-3 0  9992
2 54955  98.5555 293.4583 0116271  63.0014 298.2991 14.42414439201686

Suivez CZ-6A DEB en temps réel avec AllMySat

Download on the App Store